Huvudsida
METAR-TAF:

METAR-TAF

Flygplatser :

Sulphur Springs Municipal Airport

Sulphur Springs, Texas, USA

latitud: 33-09-40N, longitud: 095-37-16W, höjd: 149 m

Aktuellt väderrapport

Denna rapport gjordes för 7 minuter sedan, klockan 02:15 UTC
Stilla vind
Temperatur 5°C
Fuktighet 65%
Tryck 1021 hPa
Sikt: 16.1 km
Klar himmel

METAR: KSLR 250215Z AUTO 00000KT 10SM CLR 05/M01 A3014 RMK AO2 T00511015

Tid: 20:22 (02:22 UTC)


TAF: saknas

Aktuella väderrapporter och prognoser från 4000 flygplatser (METAR- och TAF-rapporter).

De tillgängliga stationerna syns som gula och röda prickar på kartan.

För musen över prickarna för att se namnen på stationerna.

Klicka sedan för att få väderrapporter och prognoser.

För att ändra kartan: Klicka på de gröna knapparna med ett svart kors på för att zooma in; den gröna knappen med ett streck på för att zooma ut; eller på de gröna pilarna för angränsande kartor.


METAR-TAF: